www.pogodaiklimat.ru

Погода и климат >> Архив погоды >> Индонезия >> Тегал


ПОГОДА в Тегале

  • Прогноз погоды в Тегале
  • Монитор погоды в Тегале

АРХИВ ПОГОДЫ в Тегале

Время (UTC), дата Ветер
(напр.,м/с)
 
Видим.   Явления Облачность Т
(С)
Тd
(С)
f
(%)
Тe
(С)
Тes
(С)
Комфортность P
(гПа)
Po
(гПа)
Тmin
(С)
Tmax
(С)
R
(мм)
R24
(мм)
S
(см)
21 16.05 штиль 0 7000 м 5/1 600 м
[Sc Ac trans Ci fib]
+24.8 +22.3 86 +32 +32 очень
душно
1011.0 1010.6
00 17.05 Ю 2 10 км 8/1 600 м
[Sc Ac trans Ci fib]
+25.4 +21.8 80 +33 +33 очень
душно
1011.6 1011.3 +24.6
03 17.05 Ю 4 12 км 9/1 600 м
[Sc Ac trans Ci fib]
+30.4 +21.5 59 +38 +44 очень
душно
1012.2 1011.9
06 17.05 СЗ 4 12 км 8/3 600 м
[Sc Ac trans Ci fib]
+33.2 +23.2 56 +44 +48 опасность
перегрева
1010.2 1009.9
09 17.05 С 2 12 км 8/1 600 м
[Sc Ci fib]
+31.2 +24.4 67 +43 +46 опасность
перегрева
1008.8 1008.4
12 17.05 Ю 3 7000 м 8/1 600 м
[Sc As op Ci fib]
+28.4 +22.3 70 +37 +37 очень
душно
1010.5 1010.1 +33.4
15 17.05 ЮЗ 3 7000 м 6/1 600 м
[Sc Ac trans Ci fib]
+26.4 +22.2 78 +34 +34 очень
душно
1012.1 1011.7
18 17.05 ЮЗ 1 7000 м 6/1 600 м
[Sc Ac trans Ci fib]
+25.4 +22.0 81 +33 +33 очень
душно
1011.5 1011.2
21 17.05 Ю 2 7000 м 6/1 600 м
[Sc Ac trans Ci fib]
+24.2 +20.2 78 +30 +30 очень
душно
1010.7 1010.3
00 18.05 Ю 3 10 км 5/1 600 м
[Sc Ac trans Ci fib]
+24.8 +20.2 76 +31 +32 очень
душно
1012.2 1011.8 +24.2
03 18.05 ЮЗ 2 12 км 5/1 600 м
[Sc Ac trans Ci fib]
+30.6 +22.3 61 +40 +50 очень
душно
1012.8 1012.4
06 18.05 СВ 5 12 км 9/1 600 м
[Sc Ac trans Ci fib]
+31.2 +22.6 60 +41 +45 опасность
перегрева
1010.8 1010.3
09 18.05 СВ 3 12 км 8/1 600 м
[Sc Ac trans Ci fib]
+30.4 +22.8 64 +40 +41 очень
душно
1009.4 1009.0
12 18.05 Ю 1 7000 м 8/1 600 м
[Sc As op Ci fib]
+29.0 +22.8 69 +38 +38 очень
душно
1010.5 1010.2 +31.8
15 18.05 Ю 2 7000 м 6/1 600 м
[Sc Ci fib]
+26.6 +23.1 81 +36 +36 очень
душно
1012.4 1012.0
18 18.05 ЮЗ 1 7000 м 6/1 600 м
[Sc Ci fib]
+25.4 +22.6 85 +33 +33 очень
душно
1011.6 1011.2
21 18.05 Ю 3 7000 м 6/1 600 м
[Sc Ci fib]
+24.6 +22.2 87 +32 +32 очень
душно
1011.2 1010.8
00 19.05 Ю 1 10 км 5/1 600 м
[Sc Ac trans Ci fib]
+25.0 +21.4 80 +32 +33 очень
душно
1012.0 1011.6 +24.0
03 19.05 СЗ 3 12 км 4/1 600 м
[Sc Ci fib]
+30.6 +21.7 59 +39 +49 очень
душно
1012.5 1012.2
06 19.05 С 1 12 км 4/1 600 м
[Sc Ci fib]
+32.4 +22.1 55 +41 +57 опасность
перегрева
1010.2 1009.9
09 19.05 СВ 3 12 км 4/1 600 м
[Cu med, cong Ci fib]
+31.4 +21.9 57 +40 +42 очень
душно
1009.1 1008.7
12 19.05 штиль 0 7000 м 5/1 600 м
[Sc Ac trans Ci fib]
+29.6 +24.0 72 +41 +41 опасность
перегрева
1010.8 1010.5 +32.6
15 19.05 ЮЗ 2 7000 м 8/3 600 м
[Sc Ac trans Ci fib]
+27.2 +23.4 80 +37 +37 очень
душно
1013.0 1012.7
18 19.05 Ю 2 7000 м 8/1 600 м
[Sc Ac As Ci fib]
+26.6 +23.4 83 +36 +36 очень
душно
1011.9 1011.6
21 19.05 ЮЗ 2 7000 м 5/1 600 м
[Sc Ci fib]
+25.8 +22.7 83 +34 +34 очень
душно
1011.0 1010.6
00 20.05 Ю 1 10 км 3/1 600 м
[Sc Ci fib]
+26.0 +21.7 77 +33 +35 очень
душно
1012.2 1011.8 +24.8
03 20.05 СВ 3 12 км 3/1 600 м
[Sc Ci fib]
+31.6 +21.5 55 +40 +50 очень
душно
1012.5 1012.1
06 20.05 С 4 12 км 3/1 600 м
[Sc Ci fib]
+31.8 +23.4 61 +43 +52 опасность
перегрева
1010.6 1010.2
09 20.05 С 2 12 км 5/3 540 м
[Cb cap Ac trans Ci fib]
+31.5 +23.2 61 +42 +44 опасность
перегрева
1009.4 1009.1
12 20.05 Ю 2 8000 м 6/1 600 м
[Sc Ac trans Ci fib]
+29.6 +24.1 72 +41 +41 опасность
перегрева
1010.6 1010.2 +32.6
15 20.05 Ю 2 8000 м 6/1 600 м
[Sc Ac trans Ci fib]
+27.2 +23.4 80 +37 +37 очень
душно
1012.3 1011.9
18 20.05 Ю 2 8000 м 6/1 600 м
[Sc Ac trans Ci fib]
+26.6 +23.1 81 +36 +36 очень
душно
1011.5 1011.1
21 20.05 Ю 2 8000 м 6/1 600 м
[Sc Ac trans Ci fib]
+25.8 +23.2 86 +35 +35 очень
душно
1011.2 1010.9
00 21.05 Ю 2 9000 м 4/1 600 м
[Sc Ac trans Ci fib]
+26.4 +23.5 84 +36 +37 очень
душно
1012.2 1011.8 +25.4
03 21.05 СВ 2 10 км 3/1 600 м
[Sc Ci fib]
+32.0 +22.5 57 +41 +54 опасность
перегрева
1012.6 1012.3
06 21.05 С 3 12 км 3/3 600 м
[Cu med, cong Ci fib]
+32.8 +23.2 57 +43 +53 опасность
перегрева
1010.5 1010.2
09 21.05 С 2 12 км 4/1 600 м
[Sc Ci fib]
+32.2 +24.2 63 +44 +47 опасность
перегрева
1009.1 1008.8
12 21.05 З 1 8000 м 6/1 600 м
[Sc Ac trans Ci fib]
+29.8 +24.0 71 +41 +41 опасность
перегрева
1010.3 1010.0 +33.2
15 21.05 Ю 2 8000 м 9/4 600 м
[Sc Ac As Ci fib]
+28.0 +24.2 80 +39 +39 очень
душно
1012.4 1012.1
18 21.05 Ю 1 8000 м 9/4 600 м
[Sc Ac trans Ci fib]
+27.6 +24.0 81 +38 +38 очень
душно
1011.4 1011.8
21 21.05 ЮЗ 1 8000 м зарница 8/3 540 м
[Cb cap Ac As Ci fib]
+26.4 +23.8 86 +36 +36 очень
душно
1011.4 1011.0
00 22.05 Ю 2 10 км 5/1 600 м
[Sc Ac trans Ci fib]
+26.6 +23.1 81 +36 +37 очень
душно
1012.3 1012.0 +25.9
03 22.05 СЗ 3 12 км 4/1 600 м
[Sc Ci fib]
+31.2 +23.3 63 +42 +52 опасность
перегрева
1012.1 1011.8
06 22.05 СВ 4 10 км 3/1 600 м
[Cu med, cong Ci fib]
+32.2 +22.4 56 +41 +51 опасность
перегрева
1009.8 1009.5
09 22.05 СВ 3 10 км 6/4 600 м
[Sc Ac trans Ci fib]
+30.8 +24.2 68 +43 +44 опасность
перегрева
1008.8 1008.5
12 22.05 штиль 0 8000 м 9/5 600 м
[Sc Ac As Ci fib]
+29.6 +25.0 76 +42 +42 опасность
перегрева
1010.9 1010.5 +32.8
15 22.05 ЮЗ 2 8000 м 9/5 600 м
[Sc Ac As Ci fib]
+27.8 +24.3 81 +39 +39 очень
душно
1012.8 1012.5
18 22.05 штиль 0 8000 м 4/1 600 м
[Sc Ci fib]
+26.6 +23.7 84 +36 +36 очень
душно
1012.5 1012.1
21 22.05 Ю 1 8000 м 4/1 600 м
[Sc Ci fib]
+25.6 +23.3 87 +34 +34 очень
душно
1011.8 1011.4
00 23.05 Ю 3 10 км 4/1 600 м
[Sc Ci fib]
+25.9 +23.7 88 +35 +36 очень
душно
1012.9 1012.5 +25.0
03 23.05 СЗ 2 10 км 4/1 600 м
[Sc Ci fib]
+30.8 +23.5 65 +42 +54 опасность
перегрева
1013.1 1012.8
06 23.05 С 4 12 км 8/5 600 м
[Sc Ac trans Ci fib]
+33.0 +23.6 58 +44 +48 опасность
перегрева
1011.4 1011.0
09 23.05 СВ 3 9000 м 9/5 540 м
[Cb cap Ac As Ci fib]
+31.4 +24.2 66 +44 +44 опасность
перегрева
1010.0 1009.7
12 23.05 ЮЗ 4 7000 м 9/5 600 м
[Sc Ac As Ci fib]
+29.4 +23.6 71 +40 +40 очень
душно
1011.2 1010.8 +33.4
15 23.05 Ю 2 7000 м 8/4 600 м
[Sc Ac As Ci fib]
+27.4 +23.6 80 +37 +37 очень
душно
1012.4 1012.1
18 23.05 Ю 2 7000 м 8/4 600 м
[Sc Ac As Ci fib]
+26.8 +23.6 83 +37 +37 очень
душно
1011.6 1011.3

 

Местоположение метеостанции Тегал (Индонезия): широта -6.85 долгота 109.15 высота над уровнем моря 10 м.

В архиве по умолчанию представлена погода в Тегале за последнюю неделю. Архивные данные за месяц целиком и за предыдущие месяцы, начиная с января 2011 года, Вы можете получить, выбрав интересующий диапазон дат из раскрывающегося списка и нажав кнопку "Ввод!".


*Определитесь, кто Вы:
робот инопланетянин человек

Внимание! Время в таблицах - всемирное. Для получения местного времени необходимо прибавить поправку, которая равна 7 ч.

Смотрите также архив погоды в соседних городах и на ближайших метеорологических станциях:

Погода в Сиребоне (Индонезия) (99 км)
Погода в Чилачапе (Индонезия) (99 км)
Погода в Аэропорту Ахмад Яни (Индонезия) (137 км)
Погода в Семаранге (Индонезия) (140 км)
Погода в Бандунге (Индонезия) (173 км)
Погода в Цитеко (Индонезия) (246 км)
Погода в Джакарта порту (Индонезия) (265 км)
Погода в Джакарте (Индонезия) (267 км)
Погода в Чуруге (Индонезия) (285 км)
Погода в Аэропорту Сукарно-Хатта (Индонезия) (288 км)

Пояснения к столбцам:

Ветер - указаны скорость ветра в м/с - средняя за 10 мин, порывы в срок и между сроками (в фигурных скобках) и направление, откуда дует ветер: С - северный, СВ - северо-восточный, В - восточный, ЮВ - юго-восточный, Ю - южный, ЮЗ - юго-западный, З - западный, СЗ - северо-западный.
Видимость - горизонтальная дальность видимости в метрах или километрах. При видимости от 1 до 10 км при отсутствии осадков обычно наблюдается дымка, при ухудшении видимости до 1 км и менее - туман. В сухую погоду видимость может ухудшаться дымом, пылью или мглою.
Явления - указаны атмосферные явления, наблюдавшиеся в срок или в последний час перед сроком; фигурными скобками обозначены явления, наблюдавшиеся между сроками (за 1-3 часа до срока); квадратными скобками обозначены град или гололедные отложения с указанием их диаметра в мм.
Облачность - указаны через наклонную черту общая и нижняя облачность в баллах и высота нижней границы облаков в метрах; квадратными скобками обозначены формы облаков: Ci - перистые, Cs - перисто-слоистые, Cc - перисто-кучевые, Ac - высококучевые, As - высокослоистые, Sc - слоисто-кучевые, Ns - слоисто-дождевые, Cu - кучевые, Cb - кучево-дождевые. Подробнее классификацию облаков см. в Атласе облаков (PDF).
T - Температура воздуха - температура, измеренная на высоте 2 м над землей.
Td - Температура точки росы - температура, при понижении до которой содержащийся в воздухе водяной пар достигнет насыщения.
f - Относительная влажность воздуха - влажноcть воздуха, измеренная на высоте 2 м над землей.
Te - Эффективная температура - температура, которую ощущает одетый по сезону человек в тени. Характеристика душности погоды. При расчете учитывается влияние влажности воздуха и скорости ветра на теплоощущения человека.
Tes - Эффективная температура на солнце - температура, которую ощущает человек, с поправкой на солнечный нагрев. Характеристика знойности погоды. Зависит от высоты солнца над горизонтом, облачности и скорости ветра. Ночью, в пасмурную погоду, а также при ветре 12 м/с и более поправка равна нулю.
P - Атмосферное давление - приведенное к уровню моря атмосферное давление.
Po - Атмосферное давление - измеренное на уровне метеостанции атмосферное давление.
Tmin - Минимальная температура - минимум температуры воздуха на высоте 2 м над землей.
Tmax - Максимальная температура - максимум температуры воздуха на высоте 2 м над землей.
R - Количество осадков - Количество выпавших осадков за период времени, мм. При наведении курсора мыши на число - период времени, за который выпало указанное количество осадков.
R24 - Количество осадков - Количество выпавших осадков за 24 часа, мм.
S - Снежный покров - Высота снежного покрова, см. При наведении курсора мыши на число - состояние снежного покрова и степень покрытия местности в баллах.